Lid_Strength_Index
10 9 9 10 10 9 10 10 13 11 10 8 6 6 5 5 4 4 4 4 3 3 3 2 2 2 1 1 1 1 1 1 1 1 0 0 0 0 0 0 0 0 1 1
12 9 9 10 9 8 8 8 9 9 9 6 5 5 5 5 5 5 5 4 3 3 3 2 2 2 2 2 2 1 1 1 1 1 1 1 1 1 1 1 1 1 1 1
15 10 11 13 9 9 8 7 8 10 8 6 6 6 5 5 5 5 4 4 3 3 3 2 2 2 3 2 1 1 1 1 1 1 1 1 1 1 1 1 1 1 1 1
14 11 17 9 7 7 8 7 7 7 7 6 6 5 4 4 4 4 4 4 3 3 3 3 2 2 2 2 1 1 2 1 1 1 1 1 1 1 1 1 1 1 1 1
16 15 11 9 9 9 10 10 7 7 7 6 6 5 5 4 4 4 4 3 3 3 2 2 3 2 2 2 2 2 2 2 1 1 1 1 2 1 1 1 2 1 1 1
13 18 18 12 8 6 6 13 7 7 8 7 6 10 7 4 4 4 4 3 3 3 2 3 2 2 3 3 2 2 2 1 1 1 1 2 1 2 1 1 1 1 1 1
14 16 12 8 7 6 14 12 7 6 6 7 8 7 5 4 4 4 4 3 3 3 3 2 2 2 3 3 3 2 1 1 1 1 1 1 2 1 1 2 2 2 2 2
14 17 17 7 7 12 8 6 6 6 6 7 6 6 5 5 5 4 4 4 5 5 5 4 3 3 3 3 2 1 2 2 1 1 1 2 2 2 2 2 3 3 2 2
14 13 7 5 6 5 5 6 6 6 6 6 6 6 6 6 6 6 6 6 5 5 5 4 4 4 4 3 2 2 2 2 2 2 2 1 2 3 3 2 3 3 3 3
11 8 8 6 5 5 5 5 5 6 5 5 7 7 8 7 7 7 7 7 6 6 6 7 4 3 3 2 2 2 3 3 2 3 3 2 2 2 3 3 3 3 3 3
9 7 7 6 6 6 5 5 5 5 6 7 7 8 8 9 8 9 9 8 8 8 8 7 5 4 4 2 2 3 3 2 3 3 3 3 5 3 2 1 2 2 2 2
12 8 8 8 6 5 6 5 6 8 8 8 8 9 10 10 10 10 11 10 10 10 9 8 6 3 2 2 2 3 3 3 3 3 4 4 4 5 12 11 11 11 8 3
8 6 6 6 5 5 5 7 7 8 9 10 10 10 12 12 12 11 11 10 9 9 9 7 6 3 2 2 2 3 3 3 3 4 3 3 3 3 4 6 11 13 12 11
6 6 7 5 7 6 6 7 9 10 10 10 11 11 12 13 12 12 12 9 4 3 4 6 5 3 3 2 2 3 3 6 3 3 3 3 3 3 3 3 3 3 10 9
7 6 5 5 6 6 7 9 11 12 12 13 13 14 13 13 12 12 10 5 3 3 3 3 3 3 2 3 3 3 3 3 3 2 3 3 2 2 2 2 3 4 5 8
7 6 5 7 8 8 9 10 11 12 13 14 14 13 12 12 11 10 8 5 5 5 3 4 4 3 2 2 2 2 2 7 4 3 3 3 2 3 3 3 3 3 4 5
8 8 6 8 9 9 9 10 11 12 13 14 13 12 12 12 12 11 9 7 4 4 3 3 3 2 2 2 2 2 2 3 6 2 2 2 2 2 2 3 3 3 3 5
7 6 5 6 8 9 9 10 11 12 14 13 12 12 12 12 13 12 10 8 5 3 5 3 2 2 2 1 1 2 2 2 2 2 2 2 3 2 2 3 3 5 6 9
7 6 5 6 7 8 9 10 11 12 13 13 12 12 13 12 12 12 10 10 11 9 10 3 7 3 2 3 2 1 2 2 2 2 2 4 2 2 2 3 4 4 5 5
6 6 5 6 6 7 8 9 10 12 12 13 13 13 13 13 12 12 11 11 12 13 9 5 2 2 1 2 6 2 2 2 2 2 2 2 2 2 3 6 5 6 7 8
6 7 7 6 6 7 8 8 9 12 12 12 13 13 13 13 12 12 14 13 12 13 10 9 4 1 1 2 2 1 2 2 2 3 3 3 2 3 4 5 5 7 9 9
7 7 7 7 7 6 7 8 8 10 11 12 13 13 14 13 13 13 12 14 13 14 11 9 8 10 3 7 2 2 2 2 2 2 2 2 3 4 4 3 5 6 9 10
8 6 7 7 7 7 7 8 9 9 10 12 13 13 14 14 13 14 15 13 14 14 12 12 15 13 11 1 2 2 2 3 2 2 2 2 3 3 3 3 5 6 8 10
8 7 7 6 6 7 8 8 8 9 9 10 12 12 13 15 14 13 13 14 15 15 13 15 14 15 11 3 4 4 4 4 4 4 4 8 4 3 4 5 6 8 9 10
8 8 8 8 7 8 7 6 8 9 10 10 10 11 12 12 14 13 13 13 15 14 13 15 15 14 8 6 5 6 6 6 6 6 5 7 5 5 5 6 7 9 11 11
8 8 9 9 8 7 7 7 7 8 10 11 10 10 11 12 12 13 13 14 14 15 14 14 14 12 11 9 8 8 8 9 9 9 8 6 7 8 9 10 10 11 12 13
8 9 8 8 9 8 7 8 7 8 9 10 10 10 10 11 12 13 14 15 14 15 15 14 14 14 13 13 11 10 9 10 13 11 11 10 10 11 12 12 13 13 13 13